Time,TemperatureF,DewpointF,PressureIn,WindDirection,WindDirectionDegrees,WindSpeedMPH,WindSpeedGustMPH,Humidity,HourlyPrecipIn,Conditions,Clouds,dailyrainin,SoftwareType,DateUTC
2013-01-24 00:01:00,47.0,36.0,30.10,SSE,157,3.0,7.0,66,0.00,,,0.00,,2013-01-24 08:01:00,
2013-01-24 00:11:00,47.0,36.0,30.10,SSE,157,3.0,7.0,66,0.00,,,0.00,,2013-01-24 08:11:00,
2013-01-24 00:22:00,47.0,36.0,30.10,SE,140,4.0,6.0,65,0.00,,,0.00,,2013-01-24 08:22:00,
2013-01-24 00:32:00,46.0,36.0,30.09,SE,140,0.0,5.0,67,0.00,,,0.00,,2013-01-24 08:32:00,
2013-01-24 00:42:00,46.0,36.0,30.09,SE,140,0.0,5.0,67,0.00,,,0.00,,2013-01-24 08:42:00,
2013-01-24 00:53:00,46.0,37.0,30.07,SE,140,0.0,4.0,70,0.00,,,0.00,,2013-01-24 08:53:00,
2013-01-24 01:02:00,45.0,37.0,30.07,SE,140,0.0,1.0,73,0.00,,,0.00,,2013-01-24 09:02:00,
2013-01-24 01:12:00,45.0,37.0,30.07,SE,140,0.0,1.0,73,0.00,,,0.00,,2013-01-24 09:12:00,
2013-01-24 01:22:00,45.0,38.0,30.07,SE,140,0.0,3.0,76,0.01,,,0.01,,2013-01-24 09:22:00,
2013-01-24 01:32:00,45.0,39.0,30.07,SE,140,0.0,4.0,79,0.01,,,0.01,,2013-01-24 09:32:00,
2013-01-24 01:42:00,45.0,39.0,30.07,SE,140,0.0,4.0,79,0.01,,,0.01,,2013-01-24 09:42:00,
2013-01-24 01:53:00,44.0,39.0,30.08,SE,140,0.0,0.0,81,0.02,,,0.02,,2013-01-24 09:53:00,
2013-01-24 02:02:00,44.0,39.0,30.08,West,276,3.0,6.0,84,0.02,,,0.02,,2013-01-24 10:02:00,
2013-01-24 02:11:00,44.0,39.0,30.08,West,276,3.0,6.0,84,0.02,,,0.02,,2013-01-24 10:11:00,
2013-01-24 02:22:00,43.0,39.0,30.07,West,275,2.0,6.0,86,0.03,,,0.04,,2013-01-24 10:22:00,
2013-01-24 02:32:00,43.0,39.0,30.08,West,275,3.0,3.0,87,0.04,,,0.05,,2013-01-24 10:32:00,
2013-01-24 02:42:00,43.0,39.0,30.08,West,275,3.0,3.0,87,0.04,,,0.05,,2013-01-24 10:42:00,
2013-01-24 02:52:00,43.0,40.0,30.08,West,275,1.0,4.0,88,0.03,,,0.05,,2013-01-24 10:52:00,
2013-01-24 03:02:00,43.0,40.0,30.09,West,275,0.0,2.0,89,0.03,,,0.05,,2013-01-24 11:02:00,
2013-01-24 03:11:00,43.0,40.0,30.09,West,275,0.0,2.0,89,0.03,,,0.05,,2013-01-24 11:11:00,
2013-01-24 03:22:00,43.0,40.0,30.09,West,275,0.0,2.0,89,0.02,,,0.06,,2013-01-24 11:22:00,
2013-01-24 03:32:00,44.0,41.0,30.09,West,275,0.0,2.0,90,0.02,,,0.07,,2013-01-24 11:32:00,
2013-01-24 03:42:00,44.0,41.0,30.09,West,275,0.0,2.0,90,0.02,,,0.07,,2013-01-24 11:42:00,
2013-01-24 03:53:00,44.0,41.0,30.09,West,275,0.0,2.0,90,0.03,,,0.08,,2013-01-24 11:53:00,
2013-01-24 04:02:00,43.0,40.0,30.08,WNW,287,4.0,6.0,89,0.06,,,0.11,,2013-01-24 12:02:00,
2013-01-24 04:12:00,43.0,40.0,30.08,WNW,287,4.0,6.0,89,0.06,,,0.11,,2013-01-24 12:12:00,
2013-01-24 04:22:00,43.0,40.0,30.07,WNW,286,2.0,4.0,89,0.06,,,0.12,,2013-01-24 12:22:00,
2013-01-24 04:32:00,43.0,40.0,30.07,WNW,286,2.0,3.0,89,0.06,,,0.13,,2013-01-24 12:32:00,
2013-01-24 04:42:00,43.0,40.0,30.07,WNW,286,2.0,3.0,89,0.06,,,0.13,,2013-01-24 12:42:00,
2013-01-24 04:53:00,43.0,40.0,30.06,WNW,286,1.0,3.0,89,0.06,,,0.14,,2013-01-24 12:53:00,
2013-01-24 05:02:00,43.0,40.0,30.06,WNW,286,0.0,3.0,90,0.05,,,0.16,,2013-01-24 13:02:00,
2013-01-24 05:12:00,43.0,40.0,30.06,WNW,286,0.0,3.0,90,0.05,,,0.16,,2013-01-24 13:12:00,
2013-01-24 05:22:00,43.0,40.0,30.06,WNW,286,0.0,3.0,90,0.05,,,0.16,,2013-01-24 13:22:00,
2013-01-24 09:01:00,44.0,42.0,30.13,West,273,0.0,3.0,93,-99.99,,,-99.99,,2013-01-24 17:01:00,
2013-01-24 09:11:00,44.0,42.0,30.13,West,273,0.0,3.0,93,-99.99,,,-99.99,,2013-01-24 17:11:00,
2013-01-24 09:21:00,44.0,42.0,30.12,East,84,4.0,6.0,93,-99.99,,,-99.99,,2013-01-24 17:21:00,
2013-01-24 09:31:00,45.0,43.0,30.14,East,93,4.0,7.0,93,-99.99,,,-99.99,,2013-01-24 17:31:00,
2013-01-24 09:42:00,45.0,43.0,30.14,East,93,4.0,7.0,93,-99.99,,,-99.99,,2013-01-24 17:42:00,
2013-01-24 09:52:00,45.0,43.0,30.17,East,94,1.0,6.0,93,-99.99,,,-99.99,,2013-01-24 17:52:00,
2013-01-24 10:01:00,45.0,43.0,30.16,East,94,1.0,2.0,93,-99.99,,,-99.99,,2013-01-24 18:01:00,
2013-01-24 10:11:00,45.0,43.0,30.17,ENE,57,4.0,9.0,93,0.01,,,-99.99,,2013-01-24 18:11:00,
2013-01-24 10:21:00,45.0,43.0,30.17,ENE,57,4.0,9.0,93,0.01,,,-99.99,,2013-01-24 18:21:00,
2013-01-24 10:31:00,46.0,44.0,30.16,ENE,65,3.0,8.0,92,0.00,,,-99.99,,2013-01-24 18:31:00,
2013-01-24 10:41:00,46.0,44.0,30.16,ENE,65,3.0,8.0,92,0.00,,,-99.99,,2013-01-24 18:41:00,
2013-01-24 10:53:00,46.0,44.0,30.16,ENE,67,2.0,5.0,93,0.00,,,-99.99,,2013-01-24 18:53:00,
2013-01-24 11:01:00,46.0,44.0,30.16,ENE,67,0.0,3.0,92,0.00,,,-99.99,,2013-01-24 19:01:00,
2013-01-24 11:11:00,46.0,44.0,30.16,ENE,67,0.0,3.0,92,0.00,,,-99.99,,2013-01-24 19:11:00,
2013-01-24 11:21:00,47.0,45.0,30.17,ENE,67,1.0,5.0,92,0.00,,,-99.99,,2013-01-24 19:21:00,
2013-01-24 11:32:00,47.0,45.0,30.15,NE,34,3.0,6.0,92,0.00,,,-99.99,,2013-01-24 19:32:00,
2013-01-24 11:41:00,47.0,45.0,30.15,ENE,61,4.0,9.0,92,0.00,,,-99.99,,2013-01-24 19:41:00,
2013-01-24 11:52:00,47.0,45.0,30.15,ENE,61,4.0,9.0,92,0.00,,,-99.99,,2013-01-24 19:52:00,
2013-01-24 12:01:00,47.0,45.0,30.13,NE,46,3.0,6.0,92,0.00,,,-99.99,,2013-01-24 20:01:00,
2013-01-24 12:11:00,47.0,45.0,30.13,NE,46,3.0,6.0,92,0.00,,,-99.99,,2013-01-24 20:11:00,
2013-01-24 12:21:00,47.0,45.0,30.13,ENE,71,3.0,9.0,91,0.00,,,-99.99,,2013-01-24 20:21:00,
2013-01-24 12:32:00,47.0,45.0,30.14,ENE,67,3.0,5.0,91,0.00,,,-99.99,,2013-01-24 20:32:00,
2013-01-24 12:42:00,47.0,45.0,30.14,ENE,67,3.0,5.0,91,0.00,,,-99.99,,2013-01-24 20:42:00,
2013-01-24 12:52:00,48.0,45.0,30.13,ENE,63,2.0,4.0,91,0.00,,,-99.99,,2013-01-24 20:52:00,
2013-01-24 13:01:00,48.0,45.0,30.12,ENE,61,2.0,4.0,91,0.00,,,-99.99,,2013-01-24 21:01:00,
2013-01-24 13:11:00,48.0,45.0,30.12,ENE,61,2.0,4.0,91,0.00,,,-99.99,,2013-01-24 21:11:00,
2013-01-24 13:21:00,48.0,45.0,30.11,ENE,63,2.0,4.0,91,0.00,,,-99.99,,2013-01-24 21:21:00,
2013-01-24 13:32:00,48.0,45.0,30.13,ENE,63,1.0,4.0,91,0.00,,,-99.99,,2013-01-24 21:32:00,
2013-01-24 13:42:00,48.0,45.0,30.13,ENE,63,1.0,4.0,91,0.00,,,-99.99,,2013-01-24 21:42:00,
2013-01-24 13:52:00,49.0,46.0,30.11,ENE,60,2.0,4.0,91,0.00,,,-99.99,,2013-01-24 21:52:00,
2013-01-24 14:02:00,49.0,46.0,30.12,NNE,27,2.0,9.0,90,0.00,,,-99.99,,2013-01-24 22:02:00,
2013-01-24 14:11:00,49.0,46.0,30.12,NNE,27,2.0,9.0,90,0.00,,,-99.99,,2013-01-24 22:11:00,
2013-01-24 14:21:00,49.0,46.0,30.12,NNE,21,3.0,5.0,90,0.00,,,-99.99,,2013-01-24 22:21:00,
2013-01-24 14:31:00,49.0,46.0,30.11,NNE,19,3.0,4.0,89,0.00,,,-99.99,,2013-01-24 22:31:00,
2013-01-24 14:41:00,49.0,46.0,30.11,NNE,19,3.0,4.0,89,0.00,,,-99.99,,2013-01-24 22:41:00,
2013-01-24 14:52:00,49.0,46.0,30.11,North,10,2.0,7.0,89,0.00,,,-99.99,,2013-01-24 22:52:00,
2013-01-24 15:01:00,49.0,46.0,30.11,NNE,26,5.0,7.0,88,0.00,,,-99.99,,2013-01-24 23:01:00,
2013-01-24 15:11:00,49.0,46.0,30.11,NNE,26,5.0,7.0,88,0.00,,,-99.99,,2013-01-24 23:11:00,
2013-01-24 15:21:00,49.0,46.0,30.11,North,10,5.0,6.0,89,0.00,,,-99.99,,2013-01-24 23:21:00,
2013-01-24 15:31:00,49.0,46.0,30.12,NE,38,1.0,6.0,89,0.00,,,-99.99,,2013-01-24 23:31:00,
2013-01-24 15:42:00,49.0,46.0,30.12,NE,38,1.0,6.0,89,0.00,,,-99.99,,2013-01-24 23:42:00,
2013-01-24 15:52:00,49.0,46.0,30.12,NE,36,4.0,7.0,90,0.00,,,-99.99,,2013-01-24 23:52:00,
2013-01-24 16:01:00,49.0,46.0,30.13,NE,35,0.0,2.0,90,0.00,,,-99.99,,2013-01-25 00:01:00,
2013-01-24 16:11:00,49.0,46.0,30.13,NE,35,0.0,2.0,90,0.00,,,-99.99,,2013-01-25 00:11:00,
2013-01-24 16:21:00,49.0,46.0,30.13,NE,34,2.0,4.0,90,0.00,,,-99.99,,2013-01-25 00:21:00,
2013-01-24 16:31:00,49.0,46.0,30.14,NNE,30,3.0,6.0,90,0.00,,,-99.99,,2013-01-25 00:31:00,
2013-01-24 16:41:00,49.0,46.0,30.14,NNE,30,3.0,6.0,90,0.00,,,-99.99,,2013-01-25 00:41:00,
2013-01-24 16:52:00,49.0,46.0,30.14,NNE,17,4.0,6.0,90,0.00,,,-99.99,,2013-01-25 00:52:00,
2013-01-24 17:01:00,49.0,46.0,30.14,NE,42,4.0,7.0,90,0.00,,,-99.99,,2013-01-25 01:01:00,
2013-01-24 17:11:00,49.0,46.0,30.14,NE,42,4.0,7.0,90,0.00,,,-99.99,,2013-01-25 01:11:00,
2013-01-24 17:21:00,48.0,45.0,30.12,NE,55,2.0,6.0,91,0.00,,,-99.99,,2013-01-25 01:21:00,
2013-01-24 17:31:00,48.0,45.0,30.13,NE,50,1.0,6.0,91,0.00,,,-99.99,,2013-01-25 01:31:00,
2013-01-24 17:41:00,48.0,45.0,30.13,NE,50,1.0,6.0,91,0.00,,,-99.99,,2013-01-25 01:41:00,
2013-01-24 17:52:00,48.0,45.0,30.13,ENE,61,2.0,5.0,91,0.00,,,-99.99,,2013-01-25 01:52:00,
2013-01-24 18:01:00,48.0,45.0,30.13,ENE,61,1.0,3.0,91,0.00,,,-99.99,,2013-01-25 02:01:00,
2013-01-24 18:11:00,48.0,45.0,30.13,ENE,61,1.0,3.0,91,0.00,,,-99.99,,2013-01-25 02:11:00,
2013-01-24 18:22:00,47.0,45.0,30.12,ENE,61,2.0,3.0,91,0.00,,,-99.99,,2013-01-25 02:22:00,
2013-01-24 18:31:00,47.0,45.0,30.14,ENE,61,0.0,3.0,91,0.00,,,-99.99,,2013-01-25 02:31:00,
2013-01-24 18:41:00,47.0,45.0,30.14,ENE,60,0.0,4.0,91,0.00,,,-99.99,,2013-01-25 02:41:00,
2013-01-24 18:52:00,47.0,45.0,30.14,ENE,60,0.0,4.0,91,0.00,,,-99.99,,2013-01-25 02:52:00,
2013-01-24 19:01:00,47.0,45.0,30.14,ENE,60,0.0,1.0,92,0.00,,,-99.99,,2013-01-25 03:01:00,
2013-01-24 19:11:00,47.0,45.0,30.14,ENE,59,0.0,3.0,92,0.00,,,-99.99,,2013-01-25 03:11:00,
2013-01-24 19:21:00,47.0,45.0,30.14,ENE,59,0.0,3.0,92,0.00,,,-99.99,,2013-01-25 03:21:00,
2013-01-24 19:32:00,47.0,45.0,30.16,ENE,60,1.0,2.0,92,0.00,,,-99.99,,2013-01-25 03:32:00,
2013-01-24 19:41:00,47.0,45.0,30.16,ENE,60,1.0,2.0,92,0.00,,,-99.99,,2013-01-25 03:41:00,
2013-01-24 19:52:00,47.0,45.0,30.16,ENE,60,0.0,2.0,92,0.00,,,-99.99,,2013-01-25 03:52:00,
2013-01-24 20:01:00,47.0,45.0,30.15,ENE,57,4.0,5.0,92,0.00,,,-99.99,,2013-01-25 04:01:00,
2013-01-24 20:11:00,47.0,45.0,30.16,ENE,57,1.0,3.0,92,0.00,,,-99.99,,2013-01-25 04:11:00,
2013-01-24 20:22:00,47.0,45.0,30.16,ENE,57,1.0,3.0,92,0.00,,,-99.99,,2013-01-25 04:22:00,
2013-01-24 20:31:00,47.0,45.0,30.15,ENE,57,0.0,2.0,92,0.00,,,-99.99,,2013-01-25 04:31:00,
2013-01-24 20:41:00,47.0,45.0,30.15,ENE,57,0.0,2.0,92,0.00,,,-99.99,,2013-01-25 04:41:00,
2013-01-24 20:51:00,47.0,45.0,30.15,ENE,57,2.0,5.0,92,0.00,,,-99.99,,2013-01-25 04:51:00,
2013-01-24 21:03:00,48.0,46.0,30.17,NE,38,3.0,6.0,92,0.00,,,-99.99,,2013-01-25 05:03:00,
2013-01-24 21:12:00,48.0,46.0,30.17,NE,45,4.0,7.0,92,0.00,,,-99.99,,2013-01-25 05:12:00,
2013-01-24 21:22:00,48.0,46.0,30.17,NE,45,4.0,7.0,92,0.00,,,-99.99,,2013-01-25 05:22:00,
2013-01-24 21:31:00,48.0,46.0,30.18,NE,36,4.0,7.0,92,0.00,,,-99.99,,2013-01-25 05:31:00,
2013-01-24 21:42:00,48.0,46.0,30.18,NE,36,4.0,7.0,92,0.00,,,-99.99,,2013-01-25 05:42:00,
2013-01-24 21:52:00,48.0,45.0,30.17,NE,36,3.0,6.0,91,0.00,,,-99.99,,2013-01-25 05:52:00,
2013-01-24 22:01:00,48.0,45.0,30.17,NE,43,3.0,6.0,91,0.00,,,-99.99,,2013-01-25 06:01:00,
2013-01-24 22:11:00,48.0,45.0,30.17,NE,43,3.0,6.0,91,0.00,,,-99.99,,2013-01-25 06:11:00,
2013-01-24 22:21:00,48.0,45.0,30.18,NE,55,4.0,10.0,91,0.00,,,-99.99,,2013-01-25 06:21:00,
2013-01-24 22:31:00,48.0,45.0,30.18,NNE,33,4.0,9.0,90,0.00,,,-99.99,,2013-01-25 06:31:00,
2013-01-24 22:41:00,48.0,45.0,30.18,NNE,33,4.0,9.0,90,0.00,,,-99.99,,2013-01-25 06:41:00,
2013-01-24 22:52:00,48.0,45.0,30.18,NE,34,4.0,8.0,90,0.00,,,-99.99,,2013-01-25 06:52:00,
2013-01-24 23:01:00,48.0,45.0,30.17,NNE,25,4.0,9.0,90,0.00,,,-99.99,,2013-01-25 07:01:00,
2013-01-24 23:11:00,48.0,45.0,30.17,NNE,25,4.0,9.0,90,0.00,,,-99.99,,2013-01-25 07:11:00,
2013-01-24 23:21:00,48.0,45.0,30.17,NNE,24,2.0,9.0,90,0.00,,,-99.99,,2013-01-25 07:21:00,
2013-01-24 23:31:00,48.0,45.0,30.18,North,11,4.0,10.0,91,0.00,,,-99.99,,2013-01-25 07:31:00,
2013-01-24 23:41:00,48.0,45.0,30.18,North,11,4.0,10.0,91,0.00,,,-99.99,,2013-01-25 07:41:00,
2013-01-24 23:51:00,47.0,45.0,30.18,NNE,17,6.0,7.0,91,0.00,,,-99.99,,2013-01-25 07:51:00,